This is the latest recevied weather packets stored in our database for station/object N8ESC. If no packets are shown the sender has not sent any weather packets the latest 10 day(s).
| Time | Temp. | Humidity | Pressure | Rain* | Wind** | Luminosity | Snow |
|---|---|---|---|---|---|---|---|
| 1777309177 | 13.33° C | 64% | 1010.1 hPa | 0 mm | - | 389 W/m² | - |
| 1777308876 | 13.33° C | 64% | 1010.3 hPa | 0 mm | - | 357 W/m² | - |
| 1777308570 | 12.78° C | 65% | 1010.5 hPa | 0 mm | - | 343 W/m² | - |
| 1777308266 | 12.78° C | 65% | 1010.6 hPa | 0 mm | - | 319 W/m² | - |
| 1777307962 | 12.78° C | 65% | 1010.6 hPa | 0 mm | - | 318 W/m² | - |
| 1777307660 | 12.78° C | 65% | 1010.9 hPa | 0 mm | - | 330 W/m² | - |
| 1777307356 | 12.78° C | 65% | 1010.9 hPa | 0 mm | - | 317 W/m² | - |
| 1777307054 | 12.78° C | 65% | 1010.8 hPa | 0 mm | - | 316 W/m² | - |
| 1777306751 | 12.78° C | 65% | 1011 hPa | 0 mm | - | 311 W/m² | - |
| 1777306449 | 12.78° C | 64% | 1011.2 hPa | 0 mm | - | 304 W/m² | - |
| 1777306143 | 13.33° C | 63% | 1011.2 hPa | 0 mm | - | 335 W/m² | - |
| 1777305839 | 13.33° C | 64% | 1011.5 hPa | 0 mm | - | 335 W/m² | - |
| 1777305535 | 13.33° C | 64% | 1011.3 hPa | 0 mm | - | 314 W/m² | - |
| 1777305231 | 13.33° C | 64% | 1011.4 hPa | 0 mm | - | 334 W/m² | - |
| 1777304925 | 13.33° C | 64% | 1011.4 hPa | 0 mm | - | 366 W/m² | - |
| 1777304622 | 13.89° C | 63% | 1011 hPa | 0 mm | - | 464 W/m² | - |
| 1777304319 | 12.78° C | 65% | 1011 hPa | 0 mm | - | 447 W/m² | - |
| 1777304016 | 13.33° C | 64% | 1011.3 hPa | 0 mm | - | 425 W/m² | - |
| 1777303713 | 12.78° C | 65% | 1011.3 hPa | 0 mm | - | 432 W/m² | - |
| 1777303410 | 13.33° C | 64% | 1011.3 hPa | 0 mm | - | 406 W/m² | - |
| 1777303108 | 13.33° C | 63% | 1011.4 hPa | 0 mm | - | 368 W/m² | - |
| 1777302806 | 13.89° C | 62% | 1011.3 hPa | 0 mm | - | 515 W/m² | - |
| 1777302503 | 13.33° C | 63% | 1011.5 hPa | 0 mm | - | 495 W/m² | - |
| 1777302201 | 13.33° C | 64% | 1011.6 hPa | 0 mm | - | 551 W/m² | - |
| 1777301898 | 12.78° C | 64% | 1011.5 hPa | 0 mm | - | 548 W/m² | - |
* Rain latest hour (hover to see other rain measurements)
** Current wind speed in m/s (hover to see current wind gust speed)